DIAMANT DEB, 2684

Orbit data source: Space-Track

DIAMANT DEB, 2684 is space debris in LEO originally from a launch on Wed, 15 Feb 1967 UTC launched from the Hamma Guira Space Track Range (HGSTR). Debris objects in space refer to the collection of defunct objects orbiting the Earth. Examples of debris include non-operational satellites, rocket bodies, and fragments generated from explosions, collisions, or faulty payload assembly.

Loading next visibility...
Identifier
2684, 1967-014C
Orbit
LEO
Country
Flag of FRFR
Related business
Manufacturer
Unknown
Mission
Spacecraft
Bus & Motor
Unknown
Mass
Unknown
Launch date (UTC)
1967-02-15 (59 years ago)
Launch vehicle
Unknown
Launch site
Hamma Guira Space Track Range (HGSTR)
Object type
Payload
Rocket body
Debris
Shape & HBR
Unknown
Radar Cross Section
Small (<0.1 m²)

Expand to show TLE details & history
Last TLE update: 2 days ago

TLE from 2 days ago
0 DIAMANT DEB
1 02684U 67014C   25256.42930337  .00001602  00000-0  40120-3 0  9998
2 02684  39.9569 302.0352 0450470 141.5681 221.8078 14.06766249901962
Epoch: 2025-09-13T10:18Z
TLE epoch observation values (Epoch: 2025-09-13T10:18:11.811Z)
Latitude
0.00003°
Longitude
154.82323°
Altitude
1,119.499 km
Speed
7.168 km/s
True Right ascension
20h 08m 08s
True Declination
0° 00' 00"
Sunlit
Object was in full shadow at epoch
Visualization orbit readout
Latitude
Unknown
Longitude
Unknown
Altitude
Unknown
Speed
Unknown
Apparent Right ascension
Unknown
Apparent Declination
Unknown
Sunlit
N/A
Visualization observer readout
Local Sidereal Time
14:14:18
Azimuth
Unknown
Elevation
Unknown
Doppler factor
Unknown
Orbital elements
Apogee altitude
1,199.42 km
Perigee altitude
546.155 km
Semi-major axis
7,250.925 km
Eccentricity
0.04505
Inclination
39.9569°
RAAN
302.0352°
Arg. of periapsis
141.5681°
True anomaly
218.50727°
Mean anomaly
221.8078°
Eccentric anomaly
220.14381°
Mean motion
3.51522 °/min
Orbital period
102.41 mins
BSTAR
0.0004012
Loading maneuver chart data...
Computing Atmospheric mass density...
Loading historical data...
Loading historical data...
Loading historical data...
Loading historical data...
Loading historical data...
Loading historical data...
Loading historical data...

Documentation

Showing up to 5 results
|